RYR7JV GMAD-GCTS

Flight info

Callsign RYR7JV
Flight time 1h 20m
Altitude 41000
Route TEKNA UA600 AMLOK DCT RUSIK
Aircraft B738/M-SDE3FGILRWY/SB1

Departure

Time 2026-05-04 19:15
Airport Al Massira Airport (GMAD)

Arrival

Time 2026-05-04 20:35
Airport Tenerife Sur Airport (GCTS)
Time Latitude Longitude Altitude Speed Heading
2026-05-04 18:32 30.32881 -9.40997 230 ft 0 kts
2026-05-04 19:06 30.32859 -9.40998 230 ft 3 kts
2026-05-04 19:07 30.32838 -9.40999 230 ft 3 kts
2026-05-04 19:07 30.32818 -9.41004 230 ft 3 kts 42°
2026-05-04 19:07 30.32809 -9.41024 231 ft 3 kts 89°
2026-05-04 19:07 30.32809 -9.41040 234 ft 1 kts 91°
2026-05-04 19:08 30.32809 -9.41042 234 ft 0 kts 91°
2026-05-04 19:10 30.32809 -9.41036 233 ft 3 kts 91°
2026-05-04 19:10 30.32807 -9.40978 232 ft 11 kts 91°
2026-05-04 19:10 30.32806 -9.40886 230 ft 11 kts 91°
2026-05-04 19:11 30.32804 -9.40796 230 ft 11 kts 91°
2026-05-04 19:11 30.32799 -9.40709 230 ft 11 kts 106°
2026-05-04 19:11 30.32736 -9.40664 230 ft 13 kts 178°
2026-05-04 19:11 30.32637 -9.40666 230 ft 14 kts 181°
2026-05-04 19:12 30.32539 -9.40669 230 ft 14 kts 181°
2026-05-04 19:12 30.32436 -9.40536 230 ft 19 kts 91°
2026-05-04 19:12 30.32431 -9.40347 230 ft 27 kts 91°
2026-05-04 19:13 30.32426 -9.40133 230 ft 26 kts 91°
2026-05-04 19:13 30.32422 -9.39934 230 ft 24 kts 91°
2026-05-04 19:13 30.32417 -9.39748 230 ft 23 kts 91°
2026-05-04 19:13 30.32413 -9.39571 230 ft 16 kts 91°
2026-05-04 19:14 30.32368 -9.39494 230 ft 13 kts 178°
2026-05-04 19:14 30.32280 -9.39497 230 ft 13 kts 181°
2026-05-04 19:14 30.32224 -9.39532 230 ft 10 kts 268°
2026-05-04 19:14 30.32230 -9.39762 230 ft 61 kts 271°
2026-05-04 19:15 30.32248 -9.40527 230 ft 126 kts 271°
2026-05-04 19:15 30.32275 -9.41716 390 ft 161 kts 265°
2026-05-04 19:15 30.32320 -9.43023 1063 ft 161 kts 268°
2026-05-04 19:15 30.32385 -9.44236 2003 ft 145 kts 271°
2026-05-04 19:16 30.32447 -9.45461 2536 ft 164 kts 274°
2026-05-04 19:16 30.32513 -9.46947 2699 ft 202 kts 276°
2026-05-04 19:16 30.32551 -9.48618 3233 ft 210 kts 266°
2026-05-04 19:16 30.32039 -9.50227 3893 ft 223 kts 242°
2026-05-04 19:17 30.30981 -9.51699 4173 ft 255 kts 220°
2026-05-04 19:17 30.29295 -9.52619 4624 ft 276 kts 200°
2026-05-04 19:17 30.27495 -9.53328 5434 ft 277 kts 201°
2026-05-04 19:17 30.25652 -9.54051 6279 ft 280 kts 201°
2026-05-04 19:18 30.23804 -9.54776 7124 ft 280 kts 202°
2026-05-04 19:18 30.21949 -9.55503 7968 ft 282 kts 202°
2026-05-04 19:18 30.20074 -9.56238 8797 ft 286 kts 202°
2026-05-04 19:18 30.18198 -9.56973 9664 ft 288 kts 203°
2026-05-04 19:19 30.16330 -9.57848 10377 ft 292 kts 216°
2026-05-04 19:19 30.14772 -9.59445 10605 ft 311 kts 231°
2026-05-04 19:19 30.13291 -9.61400 10808 ft 334 kts 232°
2026-05-04 19:19 30.11747 -9.63478 11296 ft 345 kts 232°
2026-05-04 19:20 30.10188 -9.65566 12013 ft 348 kts 232°
2026-05-04 19:20 30.08590 -9.67687 12844 ft 350 kts 232°
2026-05-04 19:20 30.06980 -9.69810 13675 ft 352 kts 232°
2026-05-04 19:20 30.05354 -9.71946 14388 ft 355 kts 232°
2026-05-04 19:21 30.03717 -9.74093 15158 ft 356 kts 231°
2026-05-04 19:21 30.02066 -9.76223 16048 ft 354 kts 231°
2026-05-04 19:21 30.00428 -9.78317 16830 ft 356 kts 231°
2026-05-04 19:21 29.98757 -9.80449 17558 ft 359 kts 231°
2026-05-04 19:22 29.97066 -9.82606 18266 ft 363 kts 231°
2026-05-04 19:22 29.95365 -9.84778 18913 ft 365 kts 231°
2026-05-04 19:22 29.93654 -9.86962 19547 ft 368 kts 231°
2026-05-04 19:22 29.91952 -9.89136 20146 ft 371 kts 231°
2026-05-04 19:23 29.90212 -9.91358 20766 ft 374 kts 231°
2026-05-04 19:23 29.88456 -9.93598 21374 ft 377 kts 231°
2026-05-04 19:23 29.86689 -9.95852 21953 ft 380 kts 231°
2026-05-04 19:23 29.84907 -9.98123 22517 ft 384 kts 231°
2026-05-04 19:24 29.83143 -10.00444 23070 ft 385 kts 236°
2026-05-04 19:24 29.81658 -10.03016 23601 ft 386 kts 243°
2026-05-04 19:24 29.80489 -10.05807 24070 ft 386 kts 251°
2026-05-04 19:24 29.79587 -10.08674 24581 ft 386 kts 251°
2026-05-04 19:25 29.78686 -10.11592 25070 ft 387 kts 252°
2026-05-04 19:25 29.77782 -10.14526 25559 ft 389 kts 251°
2026-05-04 19:25 29.76872 -10.17466 26013 ft 391 kts 251°
2026-05-04 19:25 29.75953 -10.20420 26458 ft 392 kts 251°
2026-05-04 19:26 29.75024 -10.23395 26881 ft 394 kts 251°
2026-05-04 19:26 29.74101 -10.26338 27298 ft 396 kts 251°
2026-05-04 19:26 29.73162 -10.29323 27712 ft 398 kts 251°
2026-05-04 19:26 29.72215 -10.32329 28125 ft 399 kts 251°
2026-05-04 19:27 29.71263 -10.35345 28516 ft 401 kts 251°
2026-05-04 19:27 29.70308 -10.38371 28882 ft 403 kts 251°
2026-05-04 19:27 29.69348 -10.41404 29338 ft 402 kts 251°
2026-05-04 19:27 29.68399 -10.44402 29699 ft 404 kts 251°
2026-05-04 19:28 29.67433 -10.47452 30016 ft 406 kts 251°
2026-05-04 19:28 29.66467 -10.50500 30398 ft 405 kts 251°
2026-05-04 19:28 29.65501 -10.53541 30877 ft 402 kts 251°
2026-05-04 19:28 29.64545 -10.56551 31366 ft 399 kts 251°
2026-05-04 19:29 29.63597 -10.59534 31832 ft 397 kts 250°
2026-05-04 19:29 29.62651 -10.62505 32240 ft 395 kts 250°
2026-05-04 19:29 29.61718 -10.65436 32661 ft 394 kts 250°
2026-05-04 19:29 29.60777 -10.68388 33115 ft 391 kts 250°
2026-05-04 19:30 29.59842 -10.71319 33565 ft 389 kts 250°
2026-05-04 19:30 29.58910 -10.74238 33995 ft 388 kts 250°
2026-05-04 19:30 29.57981 -10.77146 34362 ft 386 kts 250°
2026-05-04 19:30 29.57058 -10.80033 34737 ft 384 kts 250°
2026-05-04 19:31 29.56149 -10.82871 35102 ft 382 kts 250°
2026-05-04 19:31 29.55229 -10.85741 35440 ft 381 kts 250°
2026-05-04 19:31 29.54313 -10.88598 35794 ft 380 kts 250°
2026-05-04 19:31 29.53401 -10.91441 36160 ft 378 kts 250°
2026-05-04 19:32 29.52494 -10.94264 36524 ft 376 kts 249°
2026-05-04 19:32 29.51590 -10.97076 36869 ft 374 kts 249°
2026-05-04 19:32 29.50700 -10.99842 37206 ft 373 kts 249°
2026-05-04 19:32 29.49801 -11.02636 37537 ft 371 kts 249°
2026-05-04 19:33 29.48904 -11.05420 37860 ft 370 kts 249°
2026-05-04 19:33 29.48012 -11.08186 38178 ft 369 kts 249°
2026-05-04 19:33 29.47123 -11.10939 38502 ft 367 kts 249°
2026-05-04 19:33 29.46235 -11.13688 38785 ft 366 kts 249°
2026-05-04 19:34 29.45348 -11.16432 38980 ft 366 kts 249°
2026-05-04 19:34 29.44470 -11.19144 39128 ft 368 kts 249°
2026-05-04 19:34 29.43576 -11.21902 39301 ft 368 kts 249°
2026-05-04 19:34 29.42684 -11.24656 39498 ft 368 kts 249°
2026-05-04 19:35 29.41790 -11.27412 39667 ft 368 kts 249°
2026-05-04 19:35 29.40895 -11.30170 39829 ft 369 kts 249°
2026-05-04 19:35 29.39999 -11.32926 40005 ft 369 kts 249°
2026-05-04 19:35 29.39097 -11.35702 40162 ft 370 kts 249°
2026-05-04 19:36 29.38196 -11.38471 40282 ft 371 kts 249°
2026-05-04 19:36 29.37301 -11.41217 40436 ft 372 kts 249°
2026-05-04 19:36 29.36398 -11.43988 40608 ft 371 kts 249°
2026-05-04 19:36 29.35492 -11.46766 40767 ft 372 kts 249°
2026-05-04 19:37 29.34582 -11.49553 40914 ft 372 kts 249°
2026-05-04 19:37 29.33673 -11.52335 41036 ft 373 kts 249°
2026-05-04 19:37 29.32760 -11.55128 41050 ft 375 kts 249°
2026-05-04 19:38 29.30935 -11.60699 41051 ft 374 kts 249°
2026-05-04 19:38 29.29103 -11.66286 41055 ft 373 kts 249°
2026-05-04 19:39 29.27282 -11.71832 41060 ft 373 kts 249°
2026-05-04 19:39 29.25446 -11.77411 41058 ft 373 kts 249°
2026-05-04 19:40 29.23628 -11.82930 41066 ft 372 kts 249°
2026-05-04 19:40 29.21794 -11.88484 41064 ft 372 kts 249°
2026-05-04 19:41 29.19961 -11.94030 41064 ft 372 kts 249°
2026-05-04 19:41 29.18127 -11.99569 41065 ft 372 kts 249°
2026-05-04 19:42 29.16298 -12.05084 41081 ft 372 kts 248°
2026-05-04 19:42 29.14458 -12.10623 41076 ft 372 kts 248°
2026-05-04 19:43 29.12614 -12.16166 41069 ft 372 kts 248°
2026-05-04 19:43 29.10779 -12.21670 41073 ft 372 kts 248°
2026-05-04 19:44 29.08932 -12.27204 41064 ft 372 kts 248°
2026-05-04 19:44 29.07083 -12.32736 41068 ft 372 kts 248°
2026-05-04 19:45 29.05239 -12.38244 41071 ft 372 kts 248°
2026-05-04 19:45 29.03379 -12.43790 41071 ft 372 kts 248°
2026-05-04 19:46 29.01524 -12.49314 41069 ft 372 kts 248°
2026-05-04 19:46 28.99675 -12.54809 41077 ft 372 kts 248°
2026-05-04 19:47 28.98126 -12.59407 41076 ft 372 kts 248°
2026-05-04 19:47 28.96274 -12.64898 41071 ft 372 kts 248°
2026-05-04 19:48 28.94107 -12.71313 41073 ft 372 kts 248°
2026-05-04 19:48 28.92556 -12.75899 41041 ft 371 kts 248°
2026-05-04 19:49 28.90674 -12.81393 41071 ft 371 kts 246°
2026-05-04 19:49 28.88256 -12.86601 41076 ft 371 kts 241°
2026-05-04 19:50 28.85734 -12.91746 41077 ft 371 kts 241°
2026-05-04 19:50 28.83230 -12.96869 41065 ft 372 kts 242°
2026-05-04 19:51 28.80717 -13.02028 41072 ft 372 kts 242°
2026-05-04 19:51 28.78202 -13.07191 41071 ft 372 kts 242°
2026-05-04 19:52 28.75700 -13.12328 41068 ft 372 kts 242°
2026-05-04 19:52 28.73179 -13.17496 41080 ft 372 kts 241°
2026-05-04 19:53 28.70676 -13.22621 41075 ft 372 kts 241°
2026-05-04 19:53 28.68158 -13.27769 41060 ft 371 kts 241°
2026-05-04 19:54 28.65640 -13.32912 41063 ft 371 kts 241°
2026-05-04 19:54 28.63126 -13.38041 41060 ft 371 kts 241°
2026-05-04 19:55 28.60609 -13.43169 41062 ft 371 kts 241°
2026-05-04 19:55 28.58101 -13.48271 41069 ft 370 kts 241°
2026-05-04 19:56 28.55580 -13.53395 41054 ft 370 kts 241°
2026-05-04 19:56 28.53061 -13.58508 41069 ft 370 kts 241°
2026-05-04 19:57 28.50540 -13.63618 41072 ft 370 kts 241°
2026-05-04 19:57 28.48034 -13.68692 41075 ft 370 kts 241°
2026-05-04 19:58 28.45505 -13.73807 41077 ft 371 kts 241°
2026-05-04 19:58 28.42970 -13.78927 41073 ft 371 kts 241°
2026-05-04 19:59 28.40454 -13.84002 41070 ft 371 kts 241°
2026-05-04 19:59 28.37919 -13.89110 41083 ft 371 kts 241°
2026-05-04 20:00 28.35377 -13.94225 41063 ft 371 kts 241°
2026-05-04 20:00 28.32849 -13.99306 41073 ft 371 kts 241°
2026-05-04 20:01 28.30306 -14.04412 41066 ft 371 kts 241°
2026-05-04 20:01 28.27759 -14.09517 41051 ft 372 kts 241°
2026-05-04 20:02 28.25219 -14.14603 41057 ft 371 kts 240°
2026-05-04 20:02 28.22667 -14.19709 41062 ft 371 kts 241°
2026-05-04 20:03 28.20114 -14.24809 41031 ft 372 kts 241°
2026-05-04 20:03 28.17575 -14.29875 41058 ft 371 kts 240°
2026-05-04 20:04 28.15010 -14.34986 41060 ft 371 kts 240°
2026-05-04 20:04 28.12467 -14.40049 41055 ft 371 kts 240°
2026-05-04 20:05 28.09904 -14.45144 41058 ft 371 kts 241°
2026-05-04 20:05 28.07347 -14.50222 41058 ft 371 kts 240°
2026-05-04 20:06 28.04782 -14.55312 40541 ft 377 kts 240°
2026-05-04 20:06 28.03489 -14.57876 40053 ft 373 kts 240°
2026-05-04 20:06 28.02204 -14.60419 39483 ft 371 kts 240°
2026-05-04 20:06 28.00957 -14.62929 38910 ft 369 kts 243°
2026-05-04 20:07 27.99922 -14.65592 38303 ft 368 kts 248°
2026-05-04 20:07 27.99181 -14.68334 38045 ft 359 kts 253°
2026-05-04 20:07 27.98586 -14.71081 37445 ft 358 kts 253°
2026-05-04 20:07 27.98011 -14.73789 36835 ft 358 kts 253°
2026-05-04 20:08 27.97431 -14.76527 36332 ft 356 kts 253°
2026-05-04 20:08 27.96855 -14.79233 35892 ft 352 kts 253°
2026-05-04 20:08 27.96278 -14.81923 35442 ft 350 kts 253°
2026-05-04 20:08 27.95704 -14.84588 35006 ft 347 kts 253°
2026-05-04 20:09 27.95137 -14.87207 34573 ft 345 kts 253°
2026-05-04 20:09 27.94565 -14.89845 34156 ft 343 kts 253°
2026-05-04 20:09 27.93999 -14.92453 33686 ft 341 kts 254°
2026-05-04 20:09 27.93433 -14.95052 33235 ft 339 kts 254°
2026-05-04 20:10 27.92870 -14.97640 32798 ft 336 kts 254°
2026-05-04 20:10 27.92313 -15.00195 32375 ft 334 kts 254°
2026-05-04 20:10 27.91759 -15.02732 31961 ft 331 kts 254°
2026-05-04 20:10 27.91214 -15.05227 31509 ft 330 kts 254°
2026-05-04 20:11 27.90667 -15.07727 31164 ft 326 kts 254°
2026-05-04 20:11 27.90123 -15.10213 30757 ft 324 kts 254°
2026-05-04 20:11 27.89582 -15.12682 30360 ft 322 kts 255°
2026-05-04 20:11 27.89044 -15.15134 29936 ft 321 kts 255°
2026-05-04 20:12 27.88510 -15.17569 29494 ft 318 kts 255°
2026-05-04 20:12 27.87978 -15.19991 29082 ft 315 kts 255°
2026-05-04 20:12 27.87457 -15.22363 28667 ft 313 kts 255°
2026-05-04 20:12 27.86934 -15.24741 28245 ft 311 kts 255°
2026-05-04 20:13 27.86408 -15.27128 27854 ft 315 kts 255°
2026-05-04 20:13 27.85868 -15.29575 27440 ft 326 kts 255°
2026-05-04 20:13 27.85315 -15.32085 26997 ft 328 kts 255°
2026-05-04 20:13 27.84766 -15.34576 26568 ft 325 kts 255°
2026-05-04 20:14 27.84228 -15.37009 26157 ft 322 kts 255°
2026-05-04 20:14 27.83688 -15.39451 25746 ft 319 kts 255°
2026-05-04 20:14 27.83210 -15.41890 25337 ft 317 kts 260°
2026-05-04 20:14 27.83024 -15.44368 24896 ft 316 kts 266°
2026-05-04 20:15 27.83124 -15.46874 24334 ft 321 kts 271°
2026-05-04 20:15 27.83334 -15.49361 23879 ft 321 kts 272°
2026-05-04 20:15 27.83566 -15.51875 23459 ft 318 kts 272°
2026-05-04 20:15 27.83797 -15.54359 22982 ft 316 kts 272°
2026-05-04 20:16 27.84023 -15.56831 22449 ft 316 kts 272°
2026-05-04 20:16 27.84241 -15.59273 22007 ft 314 kts 272°
2026-05-04 20:16 27.84460 -15.61729 21581 ft 313 kts 272°
2026-05-04 20:16 27.84675 -15.64167 21197 ft 310 kts 272°
2026-05-04 20:17 27.84886 -15.66582 20807 ft 308 kts 271°
2026-05-04 20:17 27.85094 -15.68977 20459 ft 304 kts 271°
2026-05-04 20:17 27.85300 -15.71360 20058 ft 303 kts 271°
2026-05-04 20:17 27.85503 -15.73729 19669 ft 303 kts 271°
2026-05-04 20:18 27.85703 -15.76060 19299 ft 301 kts 271°
2026-05-04 20:18 27.85905 -15.78419 18923 ft 300 kts 271°
2026-05-04 20:18 27.86105 -15.80767 18561 ft 299 kts 271°
2026-05-04 20:18 27.86305 -15.83108 18157 ft 299 kts 271°
2026-05-04 20:19 27.86503 -15.85438 17737 ft 297 kts 271°
2026-05-04 20:19 27.86700 -15.87759 17346 ft 295 kts 271°
2026-05-04 20:19 27.86895 -15.90066 16966 ft 294 kts 271°
2026-05-04 20:19 27.87087 -15.92334 16596 ft 292 kts 271°
2026-05-04 20:20 27.87279 -15.94613 16228 ft 291 kts 271°
2026-05-04 20:20 27.87470 -15.96886 15861 ft 289 kts 271°
2026-05-04 20:20 27.87660 -15.99152 15493 ft 288 kts 271°
2026-05-04 20:20 27.87849 -16.01404 15136 ft 287 kts 271°
2026-05-04 20:21 27.88036 -16.03646 14774 ft 286 kts 271°
2026-05-04 20:21 27.88223 -16.05884 14414 ft 286 kts 271°
2026-05-04 20:21 27.88596 -16.10374 13637 ft 286 kts 271°
2026-05-04 20:22 27.88780 -16.12589 13242 ft 286 kts 271°
2026-05-04 20:22 27.88965 -16.14828 12863 ft 285 kts 271°
2026-05-04 20:22 27.89150 -16.17060 12481 ft 285 kts 271°
2026-05-04 20:22 27.89335 -16.19291 12113 ft 284 kts 271°
2026-05-04 20:23 27.89518 -16.21519 11737 ft 284 kts 272°
2026-05-04 20:23 27.89699 -16.23719 11372 ft 284 kts 272°
2026-05-04 20:23 27.89835 -16.25944 10986 ft 282 kts 265°
2026-05-04 20:23 27.89476 -16.28119 10535 ft 283 kts 248°
2026-05-04 20:24 27.88722 -16.30151 10310 ft 277 kts 245°
2026-05-04 20:24 27.87963 -16.32126 10161 ft 269 kts 245°
2026-05-04 20:24 27.87229 -16.34057 9869 ft 268 kts 246°
2026-05-04 20:24 27.86446 -16.35938 9563 ft 266 kts 238°
2026-05-04 20:25 27.85385 -16.37648 9256 ft 264 kts 232°
2026-05-04 20:25 27.84266 -16.39294 8955 ft 263 kts 232°
2026-05-04 20:25 27.83160 -16.40933 8650 ft 262 kts 233°
2026-05-04 20:25 27.82069 -16.42580 8365 ft 261 kts 233°
2026-05-04 20:26 27.80989 -16.44227 8077 ft 260 kts 234°
2026-05-04 20:26 27.79930 -16.45851 7790 ft 259 kts 234°
2026-05-04 20:26 27.78865 -16.47491 7506 ft 258 kts 236°
2026-05-04 20:26 27.78191 -16.49346 7200 ft 258 kts 263°
2026-05-04 20:27 27.78314 -16.51348 6955 ft 257 kts 284°
2026-05-04 20:27 27.78977 -16.53192 6710 ft 256 kts 294°
2026-05-04 20:27 27.79747 -16.55009 6427 ft 256 kts 295°
2026-05-04 20:27 27.80525 -16.56822 6150 ft 255 kts 295°
2026-05-04 20:28 27.81295 -16.58628 5860 ft 255 kts 295°
2026-05-04 20:28 27.82050 -16.60412 5586 ft 254 kts 295°
2026-05-04 20:28 27.82810 -16.62220 5307 ft 254 kts 295°
2026-05-04 20:28 27.83568 -16.64028 5045 ft 254 kts 296°
2026-05-04 20:29 27.84320 -16.65830 4770 ft 253 kts 296°
2026-05-04 20:29 27.85068 -16.67626 4488 ft 252 kts 296°
2026-05-04 20:29 27.85805 -16.69396 4371 ft 245 kts 296°
2026-05-04 20:29 27.86660 -16.71013 4237 ft 237 kts 317°
2026-05-04 20:30 27.87995 -16.71987 4172 ft 227 kts 336°
2026-05-04 20:30 27.89437 -16.72643 4099 ft 222 kts 339°
2026-05-04 20:30 27.90884 -16.73260 3996 ft 222 kts 339°
2026-05-04 20:30 27.92321 -16.73879 3884 ft 217 kts 339°
2026-05-04 20:31 27.93708 -16.74485 3723 ft 210 kts 339°
2026-05-04 20:31 27.95056 -16.75078 3515 ft 205 kts 339°
2026-05-04 20:31 27.96379 -16.75600 3302 ft 203 kts 351°
2026-05-04 20:31 27.97719 -16.75280 3212 ft 200 kts 35°
2026-05-04 20:32 27.98518 -16.74028 3031 ft 197 kts 64°
2026-05-04 20:32 27.99085 -16.72622 2774 ft 195 kts 64°
2026-05-04 20:32 27.99609 -16.71209 2517 ft 193 kts 66°
2026-05-04 20:32 28.00093 -16.69824 2261 ft 191 kts 67°
2026-05-04 20:33 28.00569 -16.68441 2023 ft 185 kts 65°
2026-05-04 20:33 28.01036 -16.67095 1744 ft 181 kts 66°
2026-05-04 20:33 28.01477 -16.65820 1533 ft 167 kts 65°
2026-05-04 20:33 28.01884 -16.64646 1331 ft 150 kts 66°
2026-05-04 20:34 28.02245 -16.63603 1129 ft 134 kts 66°
2026-05-04 20:34 28.02579 -16.62612 916 ft 141 kts 69°
2026-05-04 20:34 28.02927 -16.61596 767 ft 139 kts 66°
2026-05-04 20:34 28.03289 -16.60569 584 ft 141 kts 68°
2026-05-04 20:35 28.03646 -16.59561 406 ft 137 kts 69°
2026-05-04 20:35 28.03874 -16.58902 282 ft 135 kts 69°
2026-05-04 20:35 28.04291 -16.57700 189 ft 92 kts 69°
2026-05-04 20:35 28.04462 -16.57208 198 ft 49 kts 69°
2026-05-04 20:36 28.04542 -16.57030 200 ft 36 kts 55°
2026-05-04 20:36 28.04666 -16.56865 209 ft 23 kts 48°
2026-05-04 20:36 28.04762 -16.56809 218 ft 15 kts 325°
2026-05-04 20:36 28.04754 -16.56920 219 ft 16 kts 249°
2026-05-04 20:37 28.04712 -16.57045 221 ft 17 kts 249°
2026-05-04 20:37 28.04663 -16.57164 222 ft 16 kts 242°
2026-05-04 20:37 28.04618 -16.57287 223 ft 19 kts 248°
2026-05-04 20:37 28.04563 -16.57447 223 ft 23 kts 249°
2026-05-04 20:38 28.04506 -16.57609 224 ft 14 kts 248°
2026-05-04 20:38 28.04522 -16.57679 222 ft 10 kts 337°
2026-05-04 20:38 28.04585 -16.57712 223 ft 10 kts 321°
2026-05-04 20:38 28.04582 -16.57792 223 ft 14 kts 250°
2026-05-04 20:39 28.04546 -16.57907 224 ft 16 kts 250°
2026-05-04 20:39 28.04510 -16.58013 224 ft 7 kts 249°
2026-05-04 20:39 28.04537 -16.58049 224 ft 7 kts 338°
2026-05-04 20:39 28.04572 -16.58065 225 ft 1 kts 338°
2026-05-04 20:40 28.04573 -16.58065 225 ft 0 kts 338°